Location: Piotrkow Trybunalski
(51.4000°N, 19.6830°E)
Time: 08:36:01
(UTC+01:00)

BlueWalker 3 - Pass Details

Date: 06 December 2022
Orbit: 499 x 517 km, 53.2° (Epoch: 29 January)

Event Time Altitude Azimuth Distance (km) Brightness Sun altitude
Rises 17:21:54 0° 286° (WNW) 2,633 6.6 -15.9°
Reaches altitude 10° 17:24:06 10° 287° (WNW) 1,741 5.5 -16.2°
Maximum altitude 17:28:03 86° 17° (NNE) 518 1.9 -16.8°
Enters shadow 17:29:39 35° 104° (ESE) 846 2.6 -17.0°
